FO-29
1 24278U 96046B 11019.93013909 .00000039 00000-0 78824-4 0 05030
2 24278 098.5222 184.2024 0349751 281.6712 074.5379 13.52956669712412
SO-33
1 25509U 98061B 11019.36822700 .00000301 00000-0 49506-4 0 8851
2 25509 031.4342 005.9707 0353537 020.1957 341.2276 14.28361434638983
RS-22
1 27939U 03042A 11020.61586935 .00000064 00000-0 20926-4 0 9180
2 27939 097.8641 241.5042 0014719 091.4122 268.8764 14.63501577390750
VO-52
1 28650U 05017B 11020.70167305 .00000513 00000-0 70907-4 0 6989
2 28650 097.6650 070.2952 0025813 285.6548 074.1826 14.81895271308902
SO-67
1 35870U 09049F 11020.80279384 .00000555 00000-0 27780-4 0 4886
2 35870 097.3040 068.8352 0004506 065.8715 064.7846 15.21297890 74535
HO-68
1 36122U 09072B 11020.63124818 -.00000045 00000-0 00000 0 0 416
2 36122 100.4396 083.5595 0007334 199.7949 160.2879 13.16283748 52822
UO-11
1 14781U 84021B 11019.79844611 .00000375 00000-0 56825-4 0 4482
2 14781 098.0257 076.8263 0007946 258.1384 101.8938 14.79882529443841
AO-16
1 20439U 90005D 11020.86080010 .00000018 00000-0 22444-4 0 988
2 20439 098.3645 335.5566 0010061 239.4960 120.5229 14.31892236 96532
LO-19
1 20442U 90005G 11019.84564962 -.00000051 00000-0 -33088-5 0 55
2 20442 098.3262 339.5099 0011185 234.8945 125.1208 14.32119873 96567
AO-27
1 22825U 93061C 11020.79501819 -.00000035 00000-0 30061-5 0 7297
2 22825 098.5137 328.4213 0008542 355.3843 004.7271 14.29323495903136
IO-26
1 22826U 93061D 11020.26138572 .00000040 00000-0 32524-4 0 4660
2 22826 098.5077 328.4244 0008789 351.5970 008.5066 14.29583233903172
GO-32
1 25397U 98043D 11019.64044397 -.00000191 00000-0 -66470-4 0 3869
2 25397 098.3184 020.2139 0001537 028.8172 331.3083 14.23193746650835
NO-44
1 26931U 01043C 11020.21934368 -.00000012 00000-0 27537-4 0 6594
2 26931 067.0538 004.7892 0006789 271.9678 088.0617 14.29630777485779
SO-50
1 27607U 02058C 11020.33638611 -.00000006 00000-0 20922-4 0 3701
2 27607 064.5590 056.8982 0055574 356.6557 003.4144 14.71632027434330
CO-55
1 27844U 03031E 11020.07689678 .00000057 00000-0 46810-4 0 263
2 27844 098.7079 030.9246 0009099 267.3881 092.6254 14.20762529391888
CO-57
1 27848U 03031J 11020.56114553 .00000055 00000-0 45947-4 0 9746
2 27848 098.7137 030.5446 0009049 271.1603 088.8546 14.20548790391901
AO-51
1 28375U 04025K 11020.66995140 .00000028 00000-0 20858-4 0 8761
2 28375 098.0806 007.0091 0083691 156.7664 203.7338 14.40720257344826
CP3
1 31129U 07012N 11020.65292779 .00000184 00000-0 53175-4 0 7779
2 31129 097.9146 053.2957 0101312 279.3046 079.6707 14.52365803199422
CO-65
1 32785U 08021C 11019.25985041 .00000033 00000-0 10842-4 0 08930
2 32785 097.8697 085.8831 0014224 304.7641 055.2235 14.81808723147482
KKS-1
1 33493U 09002B 11020.78679360 .00000516 00000-0 73091-4 0 2363
2 33493 098.1054 147.4856 0020426 154.7886 205.4333 14.81290074107698
SOHLA-1
1 33496U 09002E 11020.77726177 .00000076 00000-0 21094-4 0 3126
2 33496 098.0695 132.2249 0005895 225.6998 134.3737 14.69549722106830
TISAT-1
1 36799U 10035E 11020.79241799 .00000287 00000-0 44794-4 0 5103
2 36799 098.1222 087.4891 0016170 036.9803 323.2496 14.80293893 28502
STUDSAT
1 36801U 10035G 11019.70446836 .00000834 00000-0 11739-3 0 01471
2 36801 098.1264 086.2510 0014601 028.4032 331.7963 14.79954064028330
RAX
1 37223U 0 11019.85109331 .00000215 00000-0 38110-4 0 00580
2 37223 071.9733 006.1071 0022144 206.6527 153.3499 14.77220009008975
OOREOS
1 37224U 10062C 11003.47313986 .00000190 00000-0 34872-4 0 00475
2 37224 071.9731 042.3045 0021305 233.7010 126.2182 14.76873402006553
NANOSALD
1 37225U 0 11020.08293137 -.00000469 00000-0 -58126-4 0 00028
2 37225 071.9753 005.7427 0021680 201.8671 158.1355 14.77033912000117
FAST1-2
1 37227U 0 11019.13957879 -.00000049 00000-0 98293-6 0 00578
2 37227 071.9728 007.8425 0018182 203.2896 156.7400 14.76384927008869
NOAA-10
1 16969U 86073A 11020.16971314 .00000063 00000-0 43433-4 0 3658
2 16969 098.6356 051.8548 0011669 300.8616 059.1418 14.27441565266537
NOAA-11
1 19531U 88089A 11020.26363139 -.00000200 00000-0 -80709-4 0 3692
2 19531 098.7589 110.5058 0010389 249.8388 110.1650 14.14900825151836
NOAA-12
1 21263U 91032A 11020.42618242 .00000034 00000-0 33035-4 0 8637
2 21263 098.7585 038.4785 0011560 256.2482 103.7415 14.25679410 23358
MET-3/5
1 21655U 91056A 11020.52688619 .00000051 00000-0 10000-3 0 170
2 21655 082.5579 155.0917 0013925 161.8478 198.3099 13.17025340934281
MET-2/21
1 22782U 93055A 11019.72549645 -.00000018 00000-0 -29817-4 0 9955
2 22782 082.5473 080.6752 0023032 151.5888 208.6539 13.83652451878022
OKEAN-4
1 23317U 94066A 11020.73683363 .00000312 00000-0 35421-4 0 4523
2 23317 082.5412 150.7990 0020634 243.2935 116.6167 14.82927079878699
NOAA-14
1 23455U 94089A 11020.40901815 -.00000031 00000-0 71203-5 0 3516
2 23455 098.8619 104.4677 0009267 344.5040 015.5855 14.13804861828198
NOAA-15
1 25338U 98030A 11020.35149605 .00000178 00000-0 94832-4 0 6788
2 25338 098.6400 008.6302 0010812 158.2840 201.8811 14.24879746659675
RESURS
1 25394U 98043A 11020.85569236 -.00000004 00000-0 15980-4 0 7041
2 25394 098.2991 031.9995 0001209 347.3170 012.7979 14.24221802651335
FENGYUN1
1 25730U 99025A 11020.34954501 -.00000055 00000-0 -70760-5 0 2379
2 25730 098.8041 344.8943 0022765 007.6665 352.4836 14.08491344602250
OKEAN-0
1 25860U 99039A 11020.69279207 .00000076 00000-0 19055-4 0 2087
2 25860 097.8633 351.3767 0001878 087.0915 273.0504 14.73702977618930
NOAA-16
1 26536U 00055A 11020.32519910 .00000212 00000-0 13985-3 0 1587
2 26536 099.1565 047.7581 0011291 088.4012 271.8452 14.12595476532483
NOAA-17
1 27453U 02032A 11020.36544155 .00000280 00000-0 13920-3 0 1546
2 27453 098.4020 066.7198 0011095 218.8502 141.1885 14.24229939445618
NOAA-18
1 28654U 05018A 11020.44004220 -.00000169 00000-0 -68712-4 0 6396
2 28654 098.9784 331.3703 0014548 158.0712 202.1096 14.11426896292081
NOAA-19
1 33591U 09005A 11020.40468848 .00000059 00000-0 56929-4 0 8348
2 33591 098.8126 323.1558 0014675 037.2972 322.9220 14.11121318100540
HUBBLE
1 20580U 90037B 11019.13656013 .00000481 00000-0 23886-4 0 7038
2 20580 028.4721 269.9148 0003108 336.0472 023.9942 15.01143351937234
ISS
1 25544U 98067A 11020.86512223 .00009632 00000-0 76387-4 0 6827
2 25544 051.6428 196.2115 0004490 201.0557 314.0403 15.72063951697714
CO-58
1 28895U 05043F 11019.69431497 .00000244 00000-0 60109-4 0 07818
2 28895 097.9878 261.6371 0017504 330.1414 029.8818 14.59996539278576
FALCON
1 30776U 07006E 11020.83927563 .00000604 00000-0 45789-4 0 47
2 30776 035.4321 162.4981 0001843 303.8067 056.2475 15.04071727212847
MAST
1 31126U 07012K 11019.63682982 .00000149 00000-0 44356-4 0 00642
2 31126 097.9118 055.1443 0093549 273.3565 085.6930 14.53665699199502
CAPE1
1 31130U 07012P 11019.55185013 .00000192 00000-0 54966-4 0 00861
2 31130 097.9143 052.0665 0101705 283.1641 075.8252 14.52281016199060
COMPASS
1 32787U 08021E 11019.29351840 .00000549 00000-0 75502-4 0 08879
2 32787 097.8700 085.7831 0014892 304.6560 055.3208 14.82115110147504
AAUSAT2
1 32788U 08021F 11019.61214415 .00000779 00000-0 10403-3 0 08774
2 32788 097.8684 086.2760 0014505 304.8113 055.1814 14.82276867147564
DO-64
1 32789U 08021G 11019.72595145 .00000282 00000-0 41658-4 0 08944
2 32789 097.8769 087.1415 0014660 302.0394 057.9406 14.82550321147588
